GFSMW_850_thetae_156.txt.gz
Theta_e
323 318 315 314 313 313 314 314 314 313 313 312 311 310 309 303 303 303 303 304 304 304 305 303 302 302 302 302 302 303 303 303 303 305 306 308 313 314 314 314 311 313 316
321 316 314 313 313 313 313 313 312 312 311 310 309 308 306 302 302 303 304 303 304 304 303 302 302 302 302 302 302 302 302 302 301 303 307 309 311 309 310 312 310 310 312
320 316 314 312 312 311 311 311 311 311 310 310 309 307 303 302 302 303 303 303 304 303 302 301 301 301 302 302 301 301 301 301 301 301 302 306 308 304 308 308 308 307 305
320 317 314 312 311 310 310 310 310 310 310 309 308 305 303 303 302 303 303 303 303 303 301 300 300 300 301 300 300 300 300 300 299 299 299 300 299 301 304 305 305 304 301
320 318 314 312 310 309 309 309 310 309 309 308 305 303 303 302 302 303 303 303 303 301 300 299 298 298 298 297 297 296 297 298 298 297 297 298 300 298 298 301 301 300 300
318 317 314 311 310 308 308 309 308 306 304 303 302 301 301 301 302 303 302 302 301 299 298 297 296 295 295 293 293 293 293 295 296 296 295 295 295 295 296 297 298 298 298
316 315 313 311 308 307 309 308 304 302 301 301 301 301 301 301 301 301 301 300 298 297 296 295 294 293 292 292 291 291 291 292 293 294 293 293 293 293 293 294 295 296 298
314 314 312 310 308 307 308 305 303 301 301 300 301 301 300 301 301 301 300 298 297 295 294 294 292 291 291 290 290 289 289 290 290 291 291 291 291 291 291 291 291 295 298
313 312 311 310 308 307 306 305 303 301 300 300 300 300 300 301 301 300 298 297 295 294 293 291 291 289 289 289 288 288 288 288 288 288 289 289 290 290 290 289 291 291 293
312 311 310 309 309 307 304 304 302 301 301 300 300 300 301 300 300 299 297 295 293 293 290 289 288 288 289 288 287 287 287 286 286 287 287 287 288 289 289 289 289 290 290
313 311 310 309 307 305 303 303 302 301 301 301 301 301 301 299 298 298 298 294 292 291 288 288 288 288 287 287 286 286 286 286 286 285 286 285 286 287 287 288 288 289 289
312 312 311 309 306 305 303 305 303 302 302 302 303 301 299 298 300 299 294 293 291 289 288 287 287 286 286 285 285 285 285 285 284 284 285 284 284 286 286 286 286 287 287
311 310 310 308 306 305 306 306 306 302 302 303 301 300 299 299 296 294 293 291 289 288 288 287 286 286 285 285 284 284 283 283 283 283 283 283 283 283 284 284 284 285 285
308 310 310 307 308 308 308 305 303 302 303 302 300 299 299 297 295 293 292 290 288 287 286 286 285 285 284 284 283 283 283 282 282 282 282 282 282 281 281 282 282 282 283
308 308 309 308 308 309 308 304 303 302 302 298 299 298 297 296 296 292 290 288 287 286 285 285 284 284 283 283 282 282 282 281 281 281 281 281 281 281 280 280 280 280 281
307 307 307 308 308 306 304 303 301 301 300 300 298 298 298 298 294 289 287 286 285 284 284 284 283 283 283 283 282 281 281 281 281 280 280 279 279 279 280 279 279 279 279
306 308 308 309 307 305 304 302 301 300 301 300 299 298 298 298 294 289 286 285 284 283 283 283 283 283 283 282 281 281 281 280 280 279 279 278 278 278 278 278 278 278 278
306 307 308 309 307 305 303 302 300 299 300 300 298 298 297 296 291 287 285 284 283 282 282 282 282 282 282 281 281 280 280 279 279 278 278 277 277 278 278 277 277 277 277
306 306 306 308 307 306 305 303 301 300 300 299 297 297 296 295 289 285 283 284 282 282 282 282 281 281 281 280 279 279 278 278 277 277 276 276 276 277 277 276 276 276 276
304 304 304 304 304 304 303 303 302 300 299 298 297 296 294 293 288 284 283 283 282 282 282 281 280 279 280 280 279 278 277 277 276 276 276 277 276 276 276 276 276 276 276
304 303 303 302 302 303 302 302 301 300 299 296 295 294 293 291 285 284 283 283 282 282 281 279 279 279 279 279 278 278 277 277 276 276 276 276 276 276 276 276 276 276 275
303 302 302 301 302 302 301 300 299 298 297 295 294 293 291 285 284 283 283 282 282 281 279 278 278 278 278 278 278 277 277 277 276 276 276 276 275 275 275 276 275 275 275
299 299 299 299 300 300 299 298 297 296 294 293 292 291 286 284 283 283 282 282 282 280 278 279 279 278 277 277 277 277 277 276 276 276 276 276 275 275 275 275 275 275 275
299 298 297 298 299 299 298 297 295 294 293 291 288 285 284 283 283 283 282 281 280 280 279 279 279 278 277 277 276 277 276 276 276 276 275 275 275 275 275 275 275 275 275
300 297 296 297 297 297 296 294 293 292 291 290 287 284 283 282 283 282 281 280 281 280 280 279 279 279 278 277 277 276 276 276 276 275 275 274 274 274 274 274 274 274 274
298 297 296 296 296 295 294 292 292 292 291 288 286 284 282 282 282 280 281 281 281 280 278 277 278 278 278 277 276 276 276 276 275 275 274 274 274 274 274 274 273 274 274

GFSMW_850_thetae_159.txt.gz
Theta_e
327 329 326 322 321 321 322 319 318 315 314 313 312 310 309 307 303 303 304 304 305 305 306 305 304 303 302 302 302 302 303 307 304 307 306 311 314 316 316 317 314 312 311
326 327 323 320 319 320 321 319 317 315 315 314 313 311 308 306 304 303 304 304 305 305 305 304 303 302 302 302 302 302 302 306 304 304 308 311 313 312 312 314 312 310 310
325 326 322 319 318 318 319 318 317 316 315 314 311 309 307 303 303 303 303 304 304 305 304 303 302 301 301 301 301 300 300 303 304 303 304 307 310 306 310 310 309 309 306
323 325 321 319 318 317 317 317 316 315 314 312 310 308 306 306 306 305 303 304 304 304 303 302 301 300 300 299 299 298 297 298 302 302 302 303 303 305 306 306 306 303 304
322 324 321 319 317 316 316 316 315 314 312 310 310 309 307 307 305 303 302 302 303 303 301 300 299 298 297 296 295 294 294 296 299 300 300 301 303 302 301 304 303 303 302
321 323 322 319 317 315 314 314 314 313 311 311 310 309 307 305 304 303 303 302 303 302 301 299 298 296 295 294 293 293 293 293 295 296 297 298 298 298 299 299 300 300 301
320 322 321 318 316 314 313 312 312 311 310 309 308 307 306 304 304 303 302 301 300 300 299 298 297 295 294 293 292 292 292 292 292 294 295 296 296 295 296 296 297 297 300
319 320 320 317 315 313 311 310 310 309 307 306 305 305 303 303 302 301 301 300 300 298 298 297 295 294 293 292 291 291 291 291 292 292 293 294 294 294 294 294 294 296 298
318 318 318 316 314 312 310 309 307 306 304 304 302 302 301 301 301 301 301 299 299 298 296 295 294 292 291 291 290 290 290 291 291 292 291 292 292 292 293 292 293 293 295
316 316 316 315 313 311 309 308 307 304 303 302 301 300 300 300 301 300 300 300 298 297 294 294 292 291 290 290 289 289 288 289 289 289 289 289 290 291 291 291 291 292 292
316 315 315 314 313 312 309 307 305 303 302 300 299 299 300 300 300 300 301 298 298 293 292 291 290 289 288 288 288 287 287 288 289 289 289 288 288 290 290 290 290 290 291
313 316 315 313 313 311 308 306 304 301 300 299 300 299 299 299 299 300 300 297 293 291 291 290 289 287 287 287 287 287 287 287 287 287 287 286 287 288 288 288 288 288 289
311 312 313 313 312 310 308 304 304 303 304 302 302 299 300 300 297 300 297 294 291 291 289 288 287 287 286 286 286 286 286 286 285 286 286 284 284 285 285 286 286 286 286
311 310 312 312 310 309 306 304 307 305 304 307 300 301 302 297 297 296 292 290 290 289 288 287 286 286 285 285 285 285 286 285 284 284 284 284 283 283 283 283 283 283 285
311 311 311 311 310 308 306 305 306 308 301 301 301 303 300 295 295 294 290 290 289 288 288 287 286 286 285 285 285 285 285 284 284 283 283 282 282 282 281 281 281 281 281
308 308 309 310 311 309 307 306 304 302 300 300 301 302 298 300 296 294 290 288 288 287 286 286 286 285 285 284 282 285 284 283 282 282 282 281 281 280 280 279 279 279 279
307 307 308 308 309 310 309 307 305 303 301 299 300 300 299 296 297 295 290 287 287 286 285 285 285 284 284 283 282 281 283 282 281 281 280 280 279 279 279 279 279 278 278
309 309 310 310 310 309 308 306 305 303 301 300 300 298 296 297 295 291 289 287 286 285 284 283 283 284 283 282 282 281 281 281 280 280 279 278 279 278 278 278 277 277 277
305 304 305 306 308 306 305 304 303 302 301 300 299 298 296 296 295 293 288 286 284 284 283 283 282 282 282 281 280 281 280 279 279 279 279 278 278 278 278 277 277 276 277
304 303 304 304 305 305 304 303 302 301 300 299 298 297 296 295 294 291 286 284 283 283 282 282 282 281 281 280 280 280 279 279 278 277 277 278 278 277 277 277 276 276 276
302 303 303 304 304 303 303 303 303 301 300 298 297 296 295 294 293 290 287 284 283 282 282 282 281 280 280 280 279 279 279 279 278 278 277 277 277 276 276 276 276 276 276
303 302 301 302 302 302 303 303 302 300 298 297 295 294 293 292 291 289 284 283 282 282 281 280 280 279 279 279 279 278 279 278 278 277 277 276 277 276 276 276 276 276 275
303 302 301 299 299 300 301 300 301 300 297 294 293 292 291 290 289 285 283 282 282 281 281 281 281 280 279 279 278 278 277 277 277 277 276 276 276 276 275 275 275 276 275
302 301 299 298 298 298 299 298 299 298 295 293 292 290 289 287 284 282 282 282 282 282 282 282 282 281 279 278 278 277 277 277 277 276 276 276 275 275 275 275 275 275 275
301 300 298 296 296 297 298 298 297 295 292 290 289 289 288 286 283 283 283 283 282 282 282 282 282 281 280 279 278 277 277 277 277 276 276 276 276 276 275 275 275 274 274
301 298 297 295 295 296 297 296 294 292 290 289 288 287 286 284 283 282 282 282 282 282 281 281 281 280 281 280 277 276 277 276 276 276 276 276 276 276 275 275 274 274 274

GFSMW_850_thetae_162.txt.gz
Theta_e
324 329 333 331 328 327 326 323 321 320 317 315 313 312 311 309 308 305 304 304 304 305 306 305 305 305 304 303 303 302 302 304 302 303 304 313 313 316 316 316 314 312 311
323 329 331 329 325 324 325 322 320 318 316 314 313 312 310 308 306 304 304 304 304 305 305 305 305 304 304 303 302 302 301 304 302 302 305 309 314 311 313 312 311 310 309
321 330 329 326 324 322 323 321 319 317 315 315 314 312 309 307 305 303 304 304 304 305 305 305 304 304 302 301 301 300 300 300 302 302 303 306 307 307 309 308 308 307 304
322 329 327 324 321 320 321 321 319 317 316 315 314 312 309 306 304 304 304 304 304 305 305 304 303 301 301 300 299 299 298 297 298 300 301 302 304 304 303 306 304 303 303
320 328 325 323 320 319 319 320 318 317 316 315 312 310 307 307 306 305 304 303 304 304 304 302 301 300 299 298 297 297 296 295 295 297 297 299 303 302 300 301 301 301 302
320 327 325 321 320 319 318 318 318 317 315 314 311 310 309 308 307 305 303 303 303 303 302 301 300 299 298 297 296 295 294 294 294 294 296 296 298 298 298 297 297 298 299
321 325 322 320 319 318 317 317 316 316 314 312 312 310 309 308 306 304 304 303 302 302 301 301 299 298 297 295 294 294 293 292 293 292 293 296 295 295 295 295 295 295 298
321 323 321 320 318 317 316 315 315 314 313 312 311 309 308 306 305 304 303 302 302 302 299 299 298 296 296 294 292 292 292 291 291 292 292 294 294 293 294 294 293 294 295
319 320 321 320 318 316 314 313 312 312 311 309 307 307 306 305 304 303 302 302 301 298 299 298 297 296 294 292 291 291 290 291 291 291 291 291 292 292 292 292 292 293 293
317 318 318 318 317 315 313 311 310 309 307 306 305 305 303 302 301 301 301 300 300 299 297 296 296 293 292 291 290 290 290 289 290 290 290 289 289 291 291 290 291 291 292
317 317 316 316 315 313 311 310 308 307 305 304 303 302 301 301 300 301 303 300 298 296 297 298 293 292 292 290 290 289 288 289 289 289 289 288 288 289 290 289 290 290 290
313 316 316 315 315 313 311 309 307 305 304 303 301 300 299 299 300 301 299 298 295 294 296 294 292 291 290 289 288 288 288 288 288 287 287 287 287 287 288 287 288 288 288
312 313 314 315 314 312 310 308 306 305 303 303 300 299 300 305 300 300 297 297 294 293 293 291 291 289 288 288 287 287 287 287 286 286 286 286 285 285 285 286 286 286 285
312 311 313 313 314 312 310 308 306 305 304 303 308 307 305 301 301 300 300 292 292 291 291 290 289 287 287 287 287 286 286 286 285 285 285 285 284 283 282 283 284 283 284
311 311 311 312 312 311 310 309 307 306 306 307 306 303 300 300 301 300 294 291 294 290 290 289 287 287 287 287 287 286 286 285 285 284 284 284 283 281 281 281 281 281 282
309 309 309 310 312 311 309 308 307 308 307 303 302 302 299 300 301 298 297 294 289 289 289 287 287 288 288 285 285 286 285 284 284 283 283 282 282 281 281 280 280 280 280
309 308 308 308 309 311 311 310 307 305 304 300 299 298 298 298 298 297 294 290 289 290 288 287 287 287 286 284 283 284 284 284 283 282 281 281 281 280 280 280 280 279 278
309 309 308 309 311 310 311 310 308 306 303 301 301 301 298 298 297 296 294 290 290 288 287 286 285 285 284 284 283 282 282 282 282 281 280 280 280 279 279 279 278 278 278
306 305 305 305 305 307 309 309 308 306 304 303 302 301 300 297 295 294 293 291 288 286 285 283 284 284 284 283 282 281 282 282 281 280 279 279 279 279 279 279 278 277 277
303 302 302 303 304 305 306 307 307 306 305 304 302 300 298 296 295 294 292 289 286 284 284 283 283 284 283 281 281 280 281 281 280 279 279 278 279 279 278 278 278 277 277
301 301 301 302 303 304 304 304 304 303 303 302 301 299 297 294 293 292 291 287 284 283 283 283 283 283 282 281 280 279 280 280 279 279 279 278 278 279 278 278 277 277 277
301 302 302 301 302 303 303 302 302 301 300 300 299 297 295 293 292 291 289 286 285 284 283 282 282 281 282 281 279 279 279 279 279 279 278 277 278 278 277 277 276 277 277
304 304 303 303 302 300 300 300 301 301 299 297 296 294 293 291 290 289 287 285 283 283 282 282 281 280 281 280 279 279 278 277 279 279 277 277 278 277 277 276 276 276 276
302 304 302 301 302 299 298 299 300 299 298 296 293 291 291 289 288 287 285 284 283 283 283 282 282 281 281 280 279 278 278 278 277 277 276 276 277 276 276 276 275 275 275
304 303 302 300 299 298 297 298 298 298 296 294 291 290 289 288 287 286 285 284 283 283 283 283 283 282 281 281 280 278 277 277 277 276 276 276 277 277 276 276 275 275 275
304 302 301 299 297 297 297 296 298 295 294 292 289 288 288 287 286 284 284 284 283 283 283 283 283 282 282 281 280 279 278 278 277 276 277 277 277 277 276 276 275 275 275

GFSMW_850_thetae_165.txt.gz
Theta_e
333 335 336 336 334 332 331 330 329 325 321 319 317 314 313 311 311 310 307 305 305 305 306 306 306 306 305 305 304 303 303 303 303 303 314 312 316 314 314 313 312 311 309
325 333 335 333 331 330 329 329 327 325 321 318 315 313 311 310 309 307 305 304 304 305 306 306 306 306 305 305 304 302 302 302 302 302 306 312 312 312 311 310 308 307 306
321 330 332 330 329 328 328 327 325 324 320 316 313 311 309 308 307 305 304 304 304 305 305 305 305 305 305 304 303 302 301 300 300 300 301 305 308 309 307 306 304 303 303
320 327 331 329 327 326 326 325 324 323 320 314 313 312 311 310 308 304 303 304 304 304 305 305 305 304 304 303 302 301 300 299 298 298 299 301 302 303 305 304 304 303 302
320 327 330 328 326 325 324 323 322 322 318 315 315 313 311 309 306 304 303 303 303 304 304 305 304 304 304 302 300 299 298 297 297 297 296 300 303 302 301 300 299 299 301
324 326 325 324 323 322 322 321 321 320 316 316 314 313 311 306 306 305 305 303 303 303 304 304 304 303 302 301 299 298 296 296 295 295 295 296 300 300 298 297 296 295 299
325 323 322 321 321 320 320 320 319 318 317 316 314 313 308 308 307 306 305 303 303 303 303 303 302 301 300 299 297 297 295 294 293 293 294 294 294 294 294 295 294 293 298
321 321 321 321 320 319 319 319 318 317 316 315 313 311 310 308 307 306 305 303 303 303 303 302 301 299 297 296 295 295 294 293 292 292 292 293 293 293 293 293 293 293 294
320 320 320 319 319 318 318 317 317 316 314 313 313 311 308 306 306 305 304 303 302 302 301 300 299 298 295 293 294 292 292 291 291 291 291 291 291 291 291 292 292 292 292
318 320 320 318 318 317 316 316 316 315 313 312 311 311 308 305 305 305 304 303 301 299 298 299 297 296 293 292 292 291 290 290 290 290 290 290 289 290 290 290 290 291 291
317 317 318 318 317 316 315 314 313 312 311 310 309 309 307 306 305 304 303 301 298 299 298 296 294 293 291 291 290 289 289 290 290 290 289 289 288 289 289 290 289 290 290
313 316 316 316 316 315 313 312 311 309 308 308 307 306 305 304 303 301 299 299 301 298 297 294 292 292 291 290 290 289 289 289 289 288 288 288 287 287 287 288 288 288 288
313 312 315 315 315 314 312 311 310 309 308 307 306 305 303 302 300 299 303 305 301 298 294 291 291 290 289 289 288 288 288 288 287 287 287 287 287 286 286 286 286 286 286
311 312 312 314 314 314 312 311 310 309 307 306 305 303 300 299 301 305 304 300 298 297 290 290 290 289 289 288 288 288 288 287 286 287 287 287 287 286 285 284 284 284 283
310 311 311 312 314 313 312 311 310 310 308 306 305 303 307 306 305 301 300 299 297 290 289 291 289 288 288 288 287 287 287 286 287 287 287 286 285 284 284 283 282 282 282
310 310 310 311 312 313 312 312 311 310 308 307 307 307 307 303 300 299 298 297 294 294 292 289 289 289 287 287 286 286 286 286 286 286 286 284 283 282 282 282 281 281 280
309 308 308 309 310 311 311 311 310 309 307 306 305 305 303 302 299 298 298 295 294 290 289 290 292 288 287 285 286 285 285 285 284 284 284 282 282 281 280 281 280 279 278
308 308 307 308 309 310 310 310 310 309 307 305 304 303 302 300 299 299 295 293 292 290 291 291 288 287 286 284 284 284 284 283 283 283 282 281 281 281 279 280 278 277 277
306 305 305 305 305 305 305 309 310 309 307 306 305 303 302 300 298 296 294 293 291 290 290 288 287 286 284 284 283 282 282 282 282 281 281 281 280 279 279 279 277 277 277
305 305 304 303 302 303 304 307 308 308 307 306 305 303 302 299 298 296 294 292 291 290 289 286 285 283 283 283 282 282 282 282 281 281 280 280 279 279 279 277 277 277 277
304 303 302 301 302 303 304 305 306 306 306 305 303 302 300 298 297 295 293 291 290 289 288 284 283 283 283 282 281 280 281 281 281 281 280 279 279 279 278 277 277 277 277
300 298 298 298 299 300 300 301 302 303 302 301 301 300 298 297 295 293 292 290 289 288 285 283 284 283 282 281 279 279 280 281 281 280 279 278 279 278 277 277 277 278 278
298 299 301 302 302 302 302 301 301 300 300 301 300 299 297 295 293 291 289 289 288 286 285 284 282 282 282 280 279 279 279 280 280 279 278 278 278 277 277 276 277 277 277
299 302 304 303 302 301 302 300 299 299 299 299 298 297 295 292 290 289 289 288 286 285 284 282 282 282 281 281 279 278 279 279 278 278 277 277 277 277 276 276 276 276 276
299 303 303 303 301 301 301 299 297 298 298 298 296 295 293 291 289 288 288 287 287 286 285 283 283 283 282 282 280 279 278 278 278 277 277 276 277 277 276 276 276 276 276
300 303 303 302 301 300 299 299 296 296 296 296 295 293 291 289 288 287 286 285 285 284 283 283 283 283 283 282 281 279 277 277 277 276 276 277 277 277 277 277 276 276 276

GFSMW_850_thetae_168.txt.gz
Theta_e
335 341 344 342 341 343 341 340 337 335 334 333 331 327 320 315 313 311 309 308 306 305 305 305 306 306 306 306 306 306 305 304 303 310 312 314 315 313 312 311 311 310 309
337 339 339 340 340 341 341 339 337 336 335 332 327 322 317 314 312 310 306 305 304 305 305 305 306 306 306 306 306 305 304 304 303 310 313 311 311 311 308 307 306 306 305
323 336 336 337 339 340 339 338 336 332 329 325 320 317 315 312 310 309 305 304 304 305 305 305 305 305 305 305 305 304 304 303 302 301 305 311 310 306 304 304 304 304 303
318 329 335 335 337 337 336 333 331 329 324 321 319 317 315 312 310 309 305 304 304 304 304 304 304 304 304 304 305 304 303 302 300 300 299 300 305 307 305 303 302 301 301
318 325 333 335 333 332 331 330 328 325 322 321 319 316 313 311 310 309 305 303 303 304 304 304 304 303 304 304 304 304 302 300 299 298 298 298 300 301 301 301 300 299 298
321 325 327 327 328 328 328 326 324 322 321 319 317 314 313 312 311 309 306 303 303 303 303 303 302 302 302 303 303 302 300 298 297 297 296 297 299 300 300 298 296 295 298
320 322 322 323 325 325 324 323 322 321 319 316 315 315 314 312 312 311 307 304 303 303 303 303 302 302 302 302 302 300 298 297 295 295 295 295 295 295 295 294 294 296 297
319 320 321 321 322 322 322 321 320 319 318 316 314 312 312 311 308 307 307 306 304 302 302 301 300 301 301 301 301 298 297 295 294 293 293 293 293 293 293 293 293 293 295
320 320 321 321 321 320 320 319 319 318 316 314 313 313 313 310 309 308 306 305 303 302 301 300 298 298 299 299 297 296 295 294 294 293 292 292 292 292 292 291 291 291 292
319 319 319 319 319 319 319 319 318 317 316 315 314 313 312 311 308 306 306 305 304 302 300 297 296 296 297 296 295 294 292 293 293 292 291 290 290 290 290 290 290 290 291
315 316 316 317 317 317 317 318 317 316 315 315 314 313 311 309 306 306 305 304 303 301 298 295 295 296 298 294 292 291 292 291 291 290 290 290 289 289 289 290 290 290 290
315 314 315 317 317 317 316 316 315 315 314 313 312 311 310 307 305 305 304 303 302 299 296 297 301 299 291 291 291 291 290 290 290 289 289 289 288 288 288 288 288 288 288
312 314 316 316 316 315 315 314 313 313 312 311 310 309 307 306 305 303 302 301 299 299 301 300 302 291 290 290 290 290 289 289 289 289 288 288 288 287 286 286 286 286 286
310 311 313 316 315 315 314 313 312 312 311 309 308 307 306 305 304 302 300 298 301 303 302 301 299 290 291 289 288 288 288 288 288 288 288 287 286 286 285 284 284 284 284
311 310 312 313 315 314 314 313 312 311 310 308 307 307 305 302 300 299 299 303 302 299 298 298 293 289 290 288 288 288 288 288 288 288 287 286 285 284 284 284 284 283 283
310 310 310 312 312 314 314 311 312 311 310 308 308 307 306 305 305 304 303 301 299 298 296 294 291 291 287 287 287 287 287 287 287 286 285 284 284 284 283 283 283 283 282
309 309 310 311 311 312 312 310 311 311 310 308 307 306 305 303 304 303 301 300 299 297 294 291 291 289 288 286 286 286 286 286 286 285 284 283 283 283 282 282 282 281 280
308 309 309 308 309 310 310 311 311 310 309 308 307 306 304 303 303 301 300 298 295 294 293 292 290 289 289 286 286 286 285 285 284 283 283 282 282 282 281 281 280 279 279
308 308 307 307 307 307 308 309 309 309 309 308 307 306 305 304 302 301 299 297 295 293 292 291 290 290 288 286 284 284 285 284 282 282 282 281 281 281 281 279 278 278 279
307 306 305 304 304 304 304 304 304 306 308 308 307 306 303 302 302 300 298 297 294 293 292 290 290 288 287 285 283 282 282 282 282 282 281 281 281 280 279 278 278 278 278
305 304 304 304 304 303 303 302 303 306 307 307 305 304 303 302 300 299 298 296 293 292 290 289 288 288 285 283 283 281 281 282 282 281 280 280 280 279 278 277 277 278 278
304 303 303 302 302 301 300 300 301 303 304 304 303 302 302 301 300 298 297 294 292 290 289 288 287 286 283 284 281 280 280 281 281 280 280 279 279 278 278 277 277 277 278
302 300 298 297 299 300 300 301 301 300 300 301 301 300 300 299 298 296 294 292 290 289 289 287 286 286 285 282 281 279 280 280 280 280 279 277 277 277 277 277 277 277 277
299 297 299 299 300 300 300 301 300 299 299 299 300 300 300 298 296 294 292 291 290 289 288 287 286 285 283 282 281 280 279 279 279 279 278 277 276 276 276 276 277 276 276
297 298 299 300 302 301 300 300 299 298 298 298 298 298 297 296 294 292 291 290 290 289 289 287 287 286 284 283 281 280 278 279 279 278 277 277 276 276 276 276 276 276 276
298 298 299 302 302 301 300 299 299 296 296 296 297 297 296 294 291 290 288 288 288 288 287 286 285 285 282 282 281 280 277 277 277 277 277 277 276 277 277 276 276 276 276

GFSMW_850_thetae_171.txt.gz
Theta_e
322 342 344 344 341 342 343 342 341 339 337 334 332 332 331 327 323 318 314 314 315 313 311 307 305 305 306 306 306 306 306 305 305 307 313 315 314 314 313 312 311 310 308
321 338 342 343 342 341 339 343 341 339 337 335 332 331 330 326 321 316 313 312 311 310 307 305 305 306 306 306 306 306 305 304 307 311 312 312 309 309 309 308 308 306 305
318 324 339 341 342 343 342 343 341 339 337 335 333 330 327 324 318 313 311 310 308 306 305 305 305 305 305 305 305 305 305 304 303 310 310 310 308 306 303 304 304 303 303
322 317 326 338 341 342 342 341 340 339 336 333 331 330 329 323 316 312 310 308 306 305 305 305 305 305 305 305 304 304 304 304 303 303 310 303 309 307 302 302 301 301 302
321 320 320 330 337 338 338 339 338 336 332 329 328 326 322 316 312 311 309 306 304 304 304 304 304 304 304 303 303 303 303 302 302 302 300 299 301 307 305 302 298 298 298
323 325 329 330 329 329 329 330 333 329 327 324 322 319 317 314 312 310 308 306 304 303 303 303 303 303 303 303 303 302 302 301 301 300 299 298 299 300 300 300 297 295 297
323 324 324 322 321 320 323 326 326 324 322 321 320 318 314 312 311 310 310 309 305 303 303 302 302 301 301 300 300 300 300 300 299 298 297 296 297 297 297 296 295 296 295
322 322 322 322 322 324 324 323 322 321 320 319 319 317 314 313 313 311 311 309 305 303 302 302 301 300 299 298 298 299 298 298 296 296 295 294 294 294 294 294 293 294 296
323 323 323 323 322 322 319 317 316 317 318 316 317 316 314 313 311 311 309 307 305 304 302 301 300 299 298 297 296 296 295 296 295 294 293 293 293 293 292 292 292 292 292
321 320 319 319 318 316 315 315 315 315 315 314 316 316 315 314 311 310 308 308 306 305 302 301 299 297 296 295 295 295 294 294 294 292 292 291 291 291 291 291 291 291 291
318 319 319 318 318 316 316 316 316 316 316 317 314 314 313 311 310 309 307 306 305 304 303 301 297 296 295 295 296 299 294 293 292 291 290 290 290 290 290 290 290 290 290
313 312 314 316 318 318 318 318 318 318 317 316 314 313 312 310 309 306 305 304 304 303 302 300 296 296 295 298 302 296 291 291 290 290 290 289 289 289 288 288 288 288 288
312 313 313 313 316 317 317 317 317 316 315 314 312 311 310 309 308 306 305 304 303 302 302 300 296 295 299 300 301 290 290 290 289 289 289 288 288 287 287 287 287 287 287
313 312 312 315 315 316 316 316 315 314 313 312 311 310 309 308 307 305 304 304 303 302 298 295 295 299 301 295 298 289 289 289 288 288 288 287 287 287 287 287 286 286 285
313 311 311 311 315 315 315 314 314 313 313 312 310 309 308 306 305 303 303 302 300 297 296 299 300 298 296 292 293 288 288 287 287 287 287 287 287 286 286 286 286 285 283
313 311 311 310 313 315 315 314 313 312 311 311 309 308 307 306 304 304 303 299 297 299 300 298 297 295 293 291 289 287 287 287 287 286 286 286 285 285 285 285 284 283 282
311 310 310 310 310 312 312 313 312 310 311 310 308 307 306 305 305 304 302 300 300 300 299 297 294 293 292 292 289 287 287 286 286 286 285 284 284 284 283 283 282 281 281
310 310 309 309 310 311 312 312 312 311 310 309 308 307 306 305 304 302 301 302 301 299 297 296 293 292 291 289 290 287 286 286 285 285 284 283 283 282 282 282 281 280 280
309 309 309 308 309 311 311 311 311 310 310 309 308 307 306 305 304 303 303 301 300 297 296 294 293 292 290 289 289 287 286 285 285 284 283 282 282 281 281 280 279 280 280
309 308 308 309 310 309 309 310 309 309 309 308 308 307 306 304 302 302 302 301 299 296 295 293 292 290 289 289 289 286 284 285 284 282 282 281 281 280 280 279 279 279 279
308 308 308 307 306 305 304 305 305 305 305 307 307 306 305 304 302 301 301 300 298 296 293 292 290 289 288 288 287 284 285 282 281 281 281 280 280 279 279 279 278 279 278
308 307 306 304 304 304 303 303 302 302 303 305 306 305 303 302 302 301 300 299 297 295 292 290 289 288 288 287 285 287 282 280 281 280 280 279 279 279 279 278 279 278 278
306 304 304 304 303 302 302 301 298 298 299 302 303 302 301 301 301 300 299 298 296 293 291 290 289 288 287 287 286 284 281 280 280 280 279 278 278 278 278 278 277 278 277
304 303 302 302 300 298 298 298 299 301 301 299 299 299 299 300 299 299 297 296 294 292 291 290 289 288 287 286 286 282 280 280 280 279 279 278 278 278 278 277 277 277 276
303 302 300 297 297 298 299 299 299 300 300 298 298 299 299 298 298 297 295 294 293 292 292 290 289 288 287 286 285 281 280 280 279 279 279 278 277 277 277 276 276 276 276
302 300 297 297 297 299 300 299 299 299 299 297 297 298 298 297 297 295 294 291 290 290 289 288 288 287 286 284 282 281 279 278 279 279 278 278 276 276 276 276 276 276 276

GFSMW_850_thetae_174.txt.gz
Theta_e
329 336 341 343 343 343 344 343 341 339 337 336 335 334 335 333 332 328 324 319 320 323 322 319 314 310 306 306 306 306 305 306 306 307 310 312 313 313 313 312 311 310 308
319 324 334 339 340 343 344 343 342 340 339 338 335 332 331 332 330 327 323 318 318 319 318 313 309 305 305 305 305 305 305 305 307 309 311 312 311 312 311 310 309 307 306
321 320 320 326 334 341 343 343 342 339 337 337 336 334 331 330 328 324 321 316 314 314 312 309 306 305 305 305 305 305 304 304 307 309 310 310 308 307 305 305 304 304 303
321 321 321 322 332 339 342 342 340 337 337 336 335 334 332 331 329 325 321 313 310 309 308 306 305 304 305 305 305 304 304 303 303 305 308 308 309 306 302 302 302 302 302
323 320 319 322 335 340 340 340 338 338 337 335 334 333 332 330 327 322 312 309 307 306 305 305 305 304 304 304 304 304 304 305 303 302 305 308 303 307 306 300 300 300 300
324 325 327 328 329 331 332 330 329 329 330 330 327 327 327 324 321 314 312 309 307 305 305 305 304 304 303 302 302 302 303 303 303 302 301 299 300 301 305 303 300 299 297
324 325 325 326 327 327 327 325 322 322 322 321 321 321 320 318 315 314 312 309 307 305 304 304 304 303 303 302 301 301 301 301 301 300 299 298 297 298 299 299 298 296 295
323 323 323 323 324 324 323 322 321 318 316 317 315 317 316 315 314 310 310 312 311 307 303 303 302 302 301 300 300 300 300 299 299 298 297 296 296 296 295 295 295 295 294
321 323 323 324 323 320 319 318 317 315 314 315 313 312 314 315 314 314 312 312 310 306 303 302 302 301 300 298 298 298 298 297 296 296 296 295 294 294 294 293 293 293 293
321 322 322 322 321 317 315 315 314 313 313 313 313 315 315 315 314 313 311 311 308 306 304 303 300 299 298 297 296 296 296 295 295 295 294 294 293 293 292 292 292 291 291
321 320 319 319 318 316 315 315 315 315 314 314 315 314 315 315 313 311 311 310 307 305 302 301 298 297 297 297 295 295 294 295 295 294 292 292 292 291 291 291 290 290 290
319 319 318 318 318 317 316 316 317 316 316 315 313 314 315 314 313 310 309 308 306 304 303 302 302 303 296 293 293 294 297 294 293 291 291 291 290 289 289 289 289 289 289
313 314 314 315 316 317 317 317 317 317 317 316 315 314 313 312 311 309 308 307 305 304 303 302 302 301 297 293 294 299 300 293 293 293 290 289 289 288 288 288 288 288 288
313 313 312 312 312 314 316 317 317 317 317 316 314 313 311 310 309 307 306 305 304 303 302 301 300 298 294 296 298 299 295 295 290 289 288 288 288 287 287 287 286 286 286
313 312 313 311 311 313 315 316 316 315 314 313 312 310 309 308 307 306 304 303 303 302 301 299 296 294 295 297 297 295 292 289 289 288 287 287 287 286 286 285 285 285 285
312 314 314 311 311 310 314 315 315 314 313 312 311 310 308 307 306 305 304 303 301 300 299 298 299 298 297 295 292 291 290 287 287 287 286 286 286 285 285 285 285 285 284
313 313 313 311 310 310 310 314 314 314 313 311 311 310 308 307 306 306 305 304 303 300 298 300 299 297 296 293 291 290 289 287 286 286 285 284 284 283 283 283 283 283 283
311 310 310 310 310 309 310 312 314 314 312 311 310 309 308 306 305 305 303 302 301 300 300 299 298 296 294 292 291 290 288 288 287 285 285 283 283 282 282 282 282 282 282
310 310 309 309 309 309 309 310 312 313 312 310 310 309 307 306 305 304 303 302 301 301 300 298 296 294 292 291 290 289 288 287 286 285 284 282 282 282 282 281 282 281 280
310 309 309 308 309 309 309 310 312 312 312 311 310 309 308 307 305 304 302 301 301 300 298 297 295 293 291 290 289 289 288 287 287 285 283 282 281 281 281 281 280 280 279
308 308 308 309 308 308 309 311 311 310 311 310 309 308 307 306 304 303 302 301 300 300 298 296 294 292 291 290 289 288 287 285 286 283 282 281 281 280 280 280 279 279 279
307 307 308 308 308 309 310 308 308 308 307 307 307 306 306 306 304 303 302 301 300 299 297 296 293 291 289 289 288 288 287 287 285 281 281 280 280 280 279 279 279 278 278
307 308 308 308 309 308 306 304 304 304 303 304 304 305 306 305 303 302 301 300 299 298 297 295 292 290 289 287 287 287 286 286 281 280 280 279 279 279 279 278 278 278 278
306 308 308 307 306 304 303 303 302 301 299 299 300 302 303 302 301 300 299 299 298 297 296 293 291 290 288 287 286 285 284 281 280 280 280 279 279 279 278 278 277 278 277
305 306 307 305 304 303 302 300 298 298 299 300 300 299 299 299 299 299 299 298 297 296 295 293 292 291 289 288 287 285 285 282 280 280 280 279 277 277 278 277 277 277 277
303 304 303 303 302 300 297 297 298 298 298 299 299 297 298 297 298 298 297 297 294 292 292 291 290 289 288 287 286 284 282 280 280 279 280 279 277 277 277 277 277 277 277